CCA4580 ZUCK-ZPPP

Flight info

Callsign CCA4580
Flight time N/A
Altitude 33100
Route UNRIX3Z UNRIX W180 BONSA W91 IDSID W30 MEBNA MEB1J
Aircraft A346/H-SDE2E3FGHIJ3J4J5M1RWXY/LB1D1

Departure

Time 2026-04-16 15:33
Airport Chongqing Jiangbei International Airport (ZUCK)

Arrival

Time N/A
Airport Kunming Changshui International Airport (ZPPP)
Time Latitude Longitude Altitude Speed Heading
2026-04-16 15:16 29.71429 106.64952 1379 ft 0 kts 102°
2026-04-16 15:16 29.71430 106.64943 1379 ft 2 kts 99°
2026-04-16 15:17 29.71432 106.64932 1379 ft 2 kts 99°
2026-04-16 15:17 29.71433 106.64915 1379 ft 2 kts 88°
2026-04-16 15:17 29.71431 106.64898 1379 ft 2 kts 72°
2026-04-16 15:17 29.71425 106.64881 1379 ft 2 kts 59°
2026-04-16 15:18 29.71416 106.64867 1379 ft 2 kts 45°
2026-04-16 15:18 29.71404 106.64857 1379 ft 2 kts 32°
2026-04-16 15:18 29.71391 106.64849 1379 ft 1 kts 18°
2026-04-16 15:18 29.71388 106.64848 1379 ft 0 kts 16°
2026-04-16 15:24 29.71389 106.64848 1379 ft 1 kts 16°
2026-04-16 15:24 29.71406 106.64854 1379 ft 4 kts 14°
2026-04-16 15:24 29.71443 106.64862 1379 ft 6 kts 10°
2026-04-16 15:24 29.71500 106.64870 1379 ft 9 kts
2026-04-16 15:25 29.71574 106.64870 1379 ft 11 kts 359°
2026-04-16 15:25 29.71661 106.64871 1379 ft 13 kts
2026-04-16 15:25 29.71758 106.64890 1379 ft 14 kts 15°
2026-04-16 15:25 29.71859 106.64925 1379 ft 14 kts 17°
2026-04-16 15:26 29.71952 106.64957 1379 ft 14 kts 16°
2026-04-16 15:26 29.72037 106.64986 1379 ft 9 kts 25°
2026-04-16 15:26 29.72061 106.65060 1379 ft 12 kts 96°
2026-04-16 15:26 29.72039 106.65161 1379 ft 13 kts 107°
2026-04-16 15:27 29.72010 106.65271 1379 ft 14 kts 107°
2026-04-16 15:27 29.71979 106.65389 1379 ft 15 kts 107°
2026-04-16 15:27 29.71946 106.65513 1379 ft 16 kts 107°
2026-04-16 15:27 29.71913 106.65641 1379 ft 17 kts 107°
2026-04-16 15:28 29.71879 106.65769 1379 ft 15 kts 107°
2026-04-16 15:28 29.71849 106.65872 1379 ft 11 kts 110°
2026-04-16 15:28 29.71827 106.65945 1379 ft 6 kts 108°
2026-04-16 15:28 29.71815 106.65989 1379 ft 2 kts 108°
2026-04-16 15:29 29.71812 106.66000 1379 ft 1 kts 108°
2026-04-16 15:29 29.71805 106.66026 1379 ft 4 kts 108°
2026-04-16 15:29 29.71793 106.66068 1379 ft 4 kts 107°
2026-04-16 15:29 29.71789 106.66087 1379 ft 0 kts 107°
2026-04-16 15:30 29.71786 106.66096 1379 ft 2 kts 107°
2026-04-16 15:30 29.71777 106.66131 1379 ft 6 kts 107°
2026-04-16 15:31 29.71761 106.66190 1379 ft 9 kts 107°
2026-04-16 15:31 29.71753 106.66247 1379 ft 6 kts 75°
2026-04-16 15:31 29.71768 106.66277 1379 ft 0 kts 49°
2026-04-16 15:31 29.71769 106.66277 1379 ft 0 kts 49°
2026-04-16 15:32 29.71769 106.66278 1379 ft 0 kts 49°
2026-04-16 15:32 29.71782 106.66290 1379 ft 4 kts 39°
2026-04-16 15:32 29.71815 106.66307 1379 ft 6 kts 11°
2026-04-16 15:32 29.71904 106.66323 1379 ft 36 kts 11°
2026-04-16 15:33 29.72394 106.66482 1379 ft 107 kts 17°
2026-04-16 15:33 29.73302 106.66789 1380 ft 163 kts 17°
2026-04-16 15:33 29.74493 106.67202 1558 ft 188 kts 17°
2026-04-16 15:33 29.75775 106.67644 2104 ft 194 kts 17°
2026-04-16 15:34 29.77056 106.68129 2813 ft 195 kts 22°
2026-04-16 15:34 29.78259 106.68847 3434 ft 202 kts 32°
2026-04-16 15:34 29.79449 106.69841 3885 ft 219 kts 36°
2026-04-16 15:34 29.80758 106.70866 4282 ft 234 kts 33°
2026-04-16 15:35 29.82187 106.71923 4577 ft 255 kts 32°
2026-04-16 15:35 29.83755 106.73052 5029 ft 271 kts 31°
2026-04-16 15:35 29.85235 106.74380 5706 ft 276 kts 51°
2026-04-16 15:35 29.86080 106.76355 6456 ft 279 kts 79°
2026-04-16 15:36 29.86055 106.78573 7187 ft 282 kts 104°
2026-04-16 15:36 29.85495 106.80750 7940 ft 285 kts 108°
2026-04-16 15:36 29.84884 106.82922 8665 ft 289 kts 108°
2026-04-16 15:36 29.84270 106.85131 9396 ft 293 kts 108°
2026-04-16 15:37 29.83650 106.87409 10146 ft 296 kts 108°
2026-04-16 15:37 29.83041 106.89685 10692 ft 307 kts 108°
2026-04-16 15:37 29.82389 106.92131 11079 ft 326 kts 108°
2026-04-16 15:37 29.81708 106.94685 11458 ft 344 kts 109°
2026-04-16 15:38 29.80626 106.97195 11788 ft 361 kts 128°
2026-04-16 15:38 29.78784 106.99236 12120 ft 375 kts 148°
2026-04-16 15:38 29.76363 107.00457 12690 ft 382 kts 168°
2026-04-16 15:38 29.73731 107.00652 13496 ft 382 kts 187°
2026-04-16 15:39 29.71171 106.99932 14308 ft 383 kts 198°
2026-04-16 15:39 29.68629 106.99016 15069 ft 387 kts 198°
2026-04-16 15:39 29.66031 106.98082 15782 ft 392 kts 198°
2026-04-16 15:39 29.63426 106.97208 16491 ft 396 kts 195°
2026-04-16 15:40 29.60699 106.96586 17203 ft 400 kts 189°
2026-04-16 15:40 29.57927 106.96268 17890 ft 405 kts 184°
2026-04-16 15:40 29.55106 106.96188 18560 ft 409 kts 182°
2026-04-16 15:40 29.52284 106.96158 19204 ft 412 kts 182°
2026-04-16 15:41 29.49394 106.96133 19838 ft 416 kts 182°
2026-04-16 15:41 29.46491 106.96107 20454 ft 420 kts 182°
2026-04-16 15:41 29.43578 106.96077 21058 ft 423 kts 182°
2026-04-16 15:41 29.40640 106.96044 21647 ft 427 kts 182°
2026-04-16 15:42 29.37665 106.96010 22225 ft 430 kts 182°
2026-04-16 15:42 29.34644 106.95973 22791 ft 434 kts 183°
2026-04-16 15:42 29.31622 106.95937 23338 ft 437 kts 183°
2026-04-16 15:42 29.28573 106.95899 23865 ft 441 kts 183°
2026-04-16 15:43 29.25518 106.95861 24381 ft 444 kts 183°
2026-04-16 15:43 29.22409 106.95823 24898 ft 447 kts 183°
2026-04-16 15:43 29.19293 106.95785 25398 ft 451 kts 183°
2026-04-16 15:43 29.16168 106.95746 25879 ft 454 kts 183°
2026-04-16 15:44 29.13016 106.95707 26346 ft 457 kts 183°
2026-04-16 15:44 29.09794 106.95668 26809 ft 460 kts 183°
2026-04-16 15:44 29.06592 106.95630 27246 ft 464 kts 183°
2026-04-16 15:44 29.03354 106.95592 27636 ft 468 kts 183°
2026-04-16 15:45 29.00082 106.95553 28013 ft 473 kts 184°
2026-04-16 15:45 28.96776 106.95513 28389 ft 477 kts 183°
2026-04-16 15:45 28.93490 106.95473 28809 ft 480 kts 184°
2026-04-16 15:45 28.90164 106.95435 29378 ft 479 kts 184°
2026-04-16 15:46 28.86845 106.95222 29973 ft 473 kts 192°
2026-04-16 15:46 28.83671 106.94309 30547 ft 466 kts 203°
2026-04-16 15:46 28.80779 106.92733 31079 ft 460 kts 214°
2026-04-16 15:46 28.78272 106.90572 31583 ft 455 kts 225°
2026-04-16 15:47 28.76186 106.87893 32034 ft 452 kts 235°
2026-04-16 15:47 28.74316 106.84972 32449 ft 452 kts 236°
2026-04-16 15:47 28.72490 106.82059 32821 ft 454 kts 237°
2026-04-16 15:47 28.70672 106.79147 33107 ft 455 kts 237°
2026-04-16 15:48 28.68835 106.76211 33133 ft 455 kts 237°
2026-04-16 15:48 28.65156 106.70351 33136 ft 455 kts 236°
2026-04-16 15:49 28.61456 106.64475 33137 ft 456 kts 236°
2026-04-16 15:49 28.57762 106.58619 33137 ft 455 kts 236°
2026-04-16 15:50 28.54072 106.52782 33137 ft 455 kts 236°
2026-04-16 15:50 28.50375 106.46942 33137 ft 455 kts 236°
2026-04-16 15:51 28.46675 106.41105 33137 ft 456 kts 236°
2026-04-16 15:51 28.42983 106.35287 33137 ft 456 kts 236°
2026-04-16 15:52 28.39262 106.29434 33139 ft 456 kts 236°
2026-04-16 15:52 28.35554 106.23608 33137 ft 456 kts 236°
2026-04-16 15:53 28.31837 106.17776 33137 ft 456 kts 236°
2026-04-16 15:53 28.28122 106.11957 33136 ft 456 kts 236°
2026-04-16 15:54 28.24395 106.06125 33137 ft 456 kts 236°
2026-04-16 15:54 28.20668 106.00301 33137 ft 456 kts 236°
2026-04-16 15:55 28.16961 105.94516 33137 ft 456 kts 236°
2026-04-16 15:55 28.13241 105.88718 33137 ft 456 kts 236°
2026-04-16 15:56 28.09490 105.82882 33144 ft 456 kts 236°
2026-04-16 15:56 28.05755 105.77077 33153 ft 456 kts 236°
2026-04-16 15:57 28.02037 105.71307 33165 ft 456 kts 236°
2026-04-16 15:57 27.98266 105.65460 33178 ft 456 kts 236°
2026-04-16 15:58 27.94544 105.59700 33186 ft 456 kts 236°
2026-04-16 15:58 27.90778 105.53881 33190 ft 456 kts 236°
2026-04-16 15:59 27.85144 105.45179 33191 ft 456 kts 236°
2026-04-16 15:59 27.81379 105.39380 33191 ft 456 kts 236°
2026-04-16 16:00 27.77602 105.33571 33193 ft 456 kts 236°
2026-04-16 16:00 27.73849 105.27793 33192 ft 456 kts 236°
2026-04-16 16:01 27.70097 105.22035 33191 ft 456 kts 236°
2026-04-16 16:01 27.66331 105.16257 33191 ft 456 kts 236°
2026-04-16 16:02 27.62323 105.10685 33191 ft 457 kts 230°
2026-04-16 16:02 27.57894 105.05577 33192 ft 458 kts 226°
2026-04-16 16:03 27.53282 105.00545 33191 ft 458 kts 226°
2026-04-16 16:03 27.48695 104.95544 33191 ft 457 kts 226°
2026-04-16 16:04 27.44111 104.90555 33191 ft 457 kts 226°
2026-04-16 16:04 27.39556 104.85595 33191 ft 456 kts 226°
2026-04-16 16:05 27.34976 104.80624 33191 ft 456 kts 226°
2026-04-16 16:05 27.30393 104.75646 33191 ft 456 kts 226°
2026-04-16 16:06 27.25846 104.70715 33191 ft 456 kts 226°
2026-04-16 16:06 27.21262 104.65775 33191 ft 456 kts 226°
2026-04-16 16:07 27.16648 104.60844 33191 ft 456 kts 226°
2026-04-16 16:07 27.12047 104.55934 33194 ft 457 kts 226°
2026-04-16 16:08 27.07435 104.51002 33205 ft 457 kts 226°
2026-04-16 16:08 27.02839 104.46086 33227 ft 457 kts 226°
2026-04-16 16:09 26.98221 104.41161 33253 ft 458 kts 226°
2026-04-16 16:09 26.93735 104.36382 33277 ft 460 kts 226°
2026-04-16 16:10 26.89068 104.31417 33292 ft 462 kts 225°
2026-04-16 16:10 26.84287 104.26559 33297 ft 465 kts 222°
2026-04-16 16:11 26.79313 104.21907 33300 ft 465 kts 221°
2026-04-16 16:11 26.74362 104.17286 33197 ft 465 kts 221°
2026-04-16 16:12 26.71879 104.14968 32946 ft 464 kts 221°
2026-04-16 16:12 26.69408 104.12665 32696 ft 461 kts 221°
2026-04-16 16:12 26.66932 104.10355 32445 ft 459 kts 221°
2026-04-16 16:12 26.64491 104.08079 32196 ft 457 kts 221°
2026-04-16 16:13 26.62048 104.05802 31946 ft 457 kts 221°
2026-04-16 16:13 26.59607 104.03534 31697 ft 458 kts 221°
2026-04-16 16:13 26.57160 104.01254 31447 ft 458 kts 221°
2026-04-16 16:13 26.54699 103.98961 31180 ft 459 kts 221°
2026-04-16 16:14 26.52260 103.96690 30788 ft 460 kts 221°
2026-04-16 16:14 26.49797 103.94398 30247 ft 462 kts 221°
2026-04-16 16:14 26.47334 103.92109 29601 ft 463 kts 221°
2026-04-16 16:14 26.44854 103.89804 28900 ft 464 kts 221°
2026-04-16 16:15 26.42397 103.87519 28217 ft 464 kts 221°
2026-04-16 16:15 26.39919 103.85217 27680 ft 460 kts 221°
2026-04-16 16:15 26.37464 103.82939 27234 ft 455 kts 221°
2026-04-16 16:15 26.35052 103.80703 26720 ft 452 kts 221°
2026-04-16 16:16 26.32635 103.78468 26203 ft 448 kts 221°
2026-04-16 16:16 26.30246 103.76258 25685 ft 445 kts 221°
2026-04-16 16:16 26.27893 103.74081 25158 ft 442 kts 221°
2026-04-16 16:16 26.25521 103.71886 24674 ft 439 kts 221°
2026-04-16 16:17 26.23191 103.69730 24213 ft 434 kts 221°
2026-04-16 16:17 26.20856 103.67597 23757 ft 431 kts 219°
2026-04-16 16:17 26.18442 103.65632 23312 ft 427 kts 215°
2026-04-16 16:17 26.15960 103.63879 22886 ft 423 kts 212°
2026-04-16 16:18 26.13377 103.62305 22471 ft 420 kts 209°
2026-04-16 16:18 26.10799 103.60825 22028 ft 417 kts 208°
2026-04-16 16:18 26.08212 103.59349 21593 ft 413 kts 208°
2026-04-16 16:18 26.05681 103.57906 21165 ft 410 kts 208°
2026-04-16 16:19 26.03134 103.56454 20740 ft 407 kts 208°
2026-04-16 16:19 26.00619 103.55018 20317 ft 404 kts 208°
2026-04-16 16:19 25.98134 103.53600 19898 ft 401 kts 208°
2026-04-16 16:19 25.95646 103.52181 19476 ft 398 kts 208°
2026-04-16 16:20 25.93215 103.50794 19063 ft 395 kts 208°
2026-04-16 16:20 25.90740 103.49383 18640 ft 393 kts 208°
2026-04-16 16:20 25.88320 103.48003 18225 ft 390 kts 208°
2026-04-16 16:20 25.85920 103.46636 17812 ft 388 kts 208°
2026-04-16 16:21 25.83529 103.45275 17397 ft 386 kts 208°
2026-04-16 16:21 25.81121 103.43904 16978 ft 384 kts 208°
2026-04-16 16:21 25.78742 103.42551 16561 ft 382 kts 208°
2026-04-16 16:21 25.76398 103.41219 16149 ft 380 kts 208°
2026-04-16 16:22 25.74029 103.39873 15728 ft 379 kts 208°
2026-04-16 16:22 25.71712 103.38556 15312 ft 377 kts 208°
2026-04-16 16:22 25.69384 103.37234 14898 ft 375 kts 208°
2026-04-16 16:22 25.67090 103.35931 14767 ft 363 kts 208°
2026-04-16 16:23 25.64885 103.34681 14753 ft 348 kts 207°
2026-04-16 16:23 25.62759 103.33477 14742 ft 333 kts 207°
2026-04-16 16:23 25.60749 103.32339 14729 ft 318 kts 207°
2026-04-16 16:23 25.58817 103.31244 14697 ft 304 kts 207°
2026-04-16 16:24 25.56974 103.30200 14658 ft 290 kts 207°
2026-04-16 16:24 25.55202 103.29196 14616 ft 277 kts 207°
2026-04-16 16:24 25.53525 103.28249 14575 ft 265 kts 207°
2026-04-16 16:24 25.51927 103.27345 14556 ft 249 kts 207°
2026-04-16 16:25 25.50460 103.26517 14490 ft 229 kts 208°
2026-04-16 16:25 25.49093 103.25743 14392 ft 211 kts 207°
2026-04-16 16:25 25.47802 103.25034 14133 ft 203 kts 207°
2026-04-16 16:25 25.46520 103.24348 13802 ft 209 kts 206°
2026-04-16 16:26 25.45186 103.23651 13472 ft 216 kts 202°
2026-04-16 16:26 25.43761 103.23064 13122 ft 217 kts 202°
2026-04-16 16:26 25.42398 103.22365 12782 ft 215 kts 210°
2026-04-16 16:26 25.41162 103.21468 12451 ft 214 kts 217°
2026-04-16 16:27 25.39995 103.20454 12121 ft 213 kts 219°
2026-04-16 16:27 25.38838 103.19414 11795 ft 213 kts 219°
2026-04-16 16:27 25.37688 103.18382 11460 ft 211 kts 219°
2026-04-16 16:27 25.36542 103.17364 11134 ft 210 kts 219°
2026-04-16 16:28 25.35415 103.16374 10816 ft 209 kts 218°
2026-04-16 16:28 25.34270 103.15379 10495 ft 207 kts 218°
2026-04-16 16:28 25.33127 103.14389 10094 ft 208 kts 218°
2026-04-16 16:28 25.32000 103.13419 9857 ft 203 kts 218°
2026-04-16 16:29 25.30868 103.12447 9860 ft 204 kts 218°
2026-04-16 16:29 25.29739 103.11477 9857 ft 204 kts 218°
2026-04-16 16:29 25.28624 103.10519 9855 ft 204 kts 218°
2026-04-16 16:29 25.27488 103.09544 9854 ft 204 kts 218°
2026-04-16 16:30 25.26365 103.08577 9850 ft 204 kts 218°
2026-04-16 16:30 25.25253 103.07619 9853 ft 204 kts 218°
2026-04-16 16:30 25.24139 103.06659 9840 ft 195 kts 218°
2026-04-16 16:30 25.23104 103.05766 9752 ft 183 kts 218°
2026-04-16 16:31 25.22106 103.04907 9512 ft 180 kts 218°
2026-04-16 16:31 25.21133 103.04067 9273 ft 179 kts 218°
2026-04-16 16:31 25.20153 103.03222 9033 ft 177 kts 218°
2026-04-16 16:31 25.19187 103.02387 8799 ft 176 kts 217°
2026-04-16 16:32 25.18220 103.01554 8565 ft 176 kts 217°
2026-04-16 16:32 25.17255 103.00722 8332 ft 175 kts 217°
2026-04-16 16:32 25.16297 102.99892 8100 ft 175 kts 218°
2026-04-16 16:32 25.15337 102.99058 7866 ft 174 kts 218°
2026-04-16 16:33 25.14394 102.98244 7637 ft 173 kts 217°
2026-04-16 16:33 25.13434 102.97417 7406 ft 173 kts 218°
2026-04-16 16:33 25.12489 102.96606 7177 ft 172 kts 218°
2026-04-16 16:33 25.11559 102.95800 6972 ft 169 kts 218°
2026-04-16 16:34 25.10700 102.95052 6918 ft 139 kts 217°
2026-04-16 16:34 25.09865 102.94344 6938 ft 171 kts 217°
2026-04-16 16:34 25.08883 102.93517 7391 ft 183 kts 217°
2026-04-16 16:34 25.07875 102.92737 8253 ft 174 kts 210°
2026-04-16 16:35 25.06808 102.92149 8950 ft 177 kts 204°
2026-04-16 16:35 25.05651 102.91587 9307 ft 186 kts 203°
2026-04-16 16:35 25.04430 102.91005 9566 ft 200 kts 202°
2026-04-16 16:35 25.03094 102.90426 9839 ft 213 kts 191°
2026-04-16 16:36 25.01611 102.90664 10087 ft 226 kts 150°
2026-04-16 16:36 25.00482 102.91907 10348 ft 240 kts 119°
2026-04-16 16:36 25.00140 102.93733 10605 ft 256 kts 85°
2026-04-16 16:36 25.00478 102.95740 10996 ft 272 kts 78°
2026-04-16 16:37 25.00885 102.97749 11540 ft 268 kts 78°
2026-04-16 16:37 25.01295 102.99768 11789 ft 267 kts 78°
2026-04-16 16:37 25.01694 103.01776 11797 ft 266 kts 78°
2026-04-16 16:37 25.02105 103.03773 11798 ft 267 kts 75°
2026-04-16 16:38 25.02762 103.05701 11801 ft 268 kts 64°
2026-04-16 16:38 25.03728 103.07464 11802 ft 269 kts 53°
2026-04-16 16:38 25.04977 103.09004 11803 ft 271 kts 43°
2026-04-16 16:38 25.06452 103.10297 11805 ft 272 kts 36°
2026-04-16 16:39 25.07997 103.11500 11805 ft 273 kts 35°
2026-04-16 16:39 25.09572 103.12706 11804 ft 274 kts 35°
2026-04-16 16:39 25.11138 103.13910 11804 ft 274 kts 35°
2026-04-16 16:39 25.12710 103.15124 11804 ft 274 kts 35°
2026-04-16 16:40 25.14270 103.16334 11804 ft 274 kts 35°
2026-04-16 16:40 25.15837 103.17552 11804 ft 274 kts 35°
2026-04-16 16:40 25.17392 103.18763 11804 ft 274 kts 35°
2026-04-16 16:40 25.18947 103.19977 11630 ft 274 kts 35°
2026-04-16 16:41 25.20489 103.21181 11395 ft 269 kts 35°
2026-04-16 16:41 25.22006 103.22366 11149 ft 263 kts 35°
2026-04-16 16:41 25.23475 103.23514 10860 ft 253 kts 35°
2026-04-16 16:41 25.24855 103.24592 10819 ft 231 kts 34°
2026-04-16 16:42 25.26138 103.25594 10809 ft 221 kts 34°
2026-04-16 16:42 25.27394 103.26574 10821 ft 220 kts 34°
2026-04-16 16:42 25.28631 103.27540 10829 ft 220 kts 34°
2026-04-16 16:42 25.30000 103.28272 10827 ft 219 kts 12°
2026-04-16 16:43 25.31520 103.28296 10825 ft 217 kts 346°
2026-04-16 16:43 25.32880 103.27614 10631 ft 214 kts 320°
2026-04-16 16:43 25.33888 103.26441 10392 ft 212 kts 307°
2026-04-16 16:43 25.34788 103.25147 10145 ft 211 kts 305°
2026-04-16 16:44 25.35666 103.23862 9913 ft 210 kts 306°
2026-04-16 16:44 25.36557 103.22575 9859 ft 210 kts 306°
2026-04-16 16:44 25.37288 103.21195 9851 ft 208 kts 286°
2026-04-16 16:44 25.37424 103.19627 9850 ft 206 kts 261°
2026-04-16 16:45 25.36925 103.18140 9852 ft 205 kts 236°
2026-04-16 16:45 25.35953 103.17011 9861 ft 205 kts 220°
2026-04-16 16:45 25.34860 103.15982 9860 ft 205 kts 220°
2026-04-16 16:45 25.33762 103.14990 9856 ft 205 kts 219°
2026-04-16 16:46 25.32651 103.14006 9853 ft 202 kts 218°
2026-04-16 16:46 25.31597 103.13085 9828 ft 185 kts 218°
2026-04-16 16:46 25.30594 103.12216 9838 ft 182 kts 218°
2026-04-16 16:46 25.29604 103.11362 9847 ft 181 kts 218°
2026-04-16 16:47 25.28597 103.10494 9849 ft 181 kts 218°
2026-04-16 16:47 25.27599 103.09635 9852 ft 181 kts 218°
2026-04-16 16:47 25.26607 103.08781 9853 ft 181 kts 218°
2026-04-16 16:47 25.25619 103.07931 9854 ft 181 kts 218°
2026-04-16 16:48 25.24622 103.07073 9854 ft 181 kts 218°
2026-04-16 16:48 25.23626 103.06215 9834 ft 179 kts 218°
2026-04-16 16:48 25.22641 103.05365 9631 ft 178 kts 218°
2026-04-16 16:48 25.21673 103.04530 9399 ft 177 kts 218°
2026-04-16 16:49 25.20699 103.03690 9168 ft 176 kts 218°
2026-04-16 16:49 25.19735 103.02856 8937 ft 176 kts 218°
2026-04-16 16:49 25.18775 103.02028 8705 ft 175 kts 218°
2026-04-16 16:49 25.17812 103.01196 8471 ft 174 kts 218°
2026-04-16 16:50 25.16866 103.00378 8239 ft 174 kts 218°
2026-04-16 16:50 25.15912 102.99554 8006 ft 173 kts 218°
2026-04-16 16:50 25.14961 102.98734 7774 ft 173 kts 218°
2026-04-16 16:50 25.14014 102.97915 7544 ft 172 kts 218°
2026-04-16 16:51 25.13084 102.97111 7322 ft 172 kts 218°
2026-04-16 16:51 25.12135 102.96290 7094 ft 170 kts 218°
2026-04-16 16:51 25.11221 102.95509 6929 ft 156 kts 218°
2026-04-16 16:51 25.10357 102.94773 7040 ft 167 kts 218°
2026-04-16 16:52 25.09442 102.93903 7538 ft 176 kts 228°
2026-04-16 16:52 25.08703 102.92849 8337 ft 174 kts 226°
2026-04-16 16:52 25.07696 102.92173 8957 ft 178 kts 189°
2026-04-16 16:52 25.06447 102.92416 9375 ft 196 kts 148°
2026-04-16 16:53 25.05615 102.93649 9705 ft 210 kts 110°
2026-04-16 16:53 25.05250 102.95265 9993 ft 225 kts 103°
2026-04-16 16:53 25.04917 102.97006 10281 ft 240 kts 103°
2026-04-16 16:53 25.04559 102.98860 10593 ft 252 kts 103°
2026-04-16 16:54 25.04173 103.00785 10795 ft 260 kts 103°
2026-04-16 16:54 25.03878 103.02759 10798 ft 261 kts 94°
2026-04-16 16:54 25.03946 103.04768 10801 ft 263 kts 82°
2026-04-16 16:54 25.04405 103.06726 10803 ft 264 kts 69°
2026-04-16 16:55 25.05239 103.08535 10803 ft 266 kts 57°
2026-04-16 16:55 25.06417 103.10114 10804 ft 268 kts 44°
2026-04-16 16:55 25.07861 103.11405 10806 ft 269 kts 36°
2026-04-16 16:55 25.09398 103.12600 10806 ft 269 kts 35°
2026-04-16 16:56 25.10934 103.13771 10805 ft 270 kts 34°
2026-04-16 16:56 25.12467 103.14947 10804 ft 269 kts 34°
2026-04-16 16:56 25.14022 103.16145 10804 ft 269 kts 34°
2026-04-16 16:56 25.15540 103.17322 10804 ft 269 kts 34°
2026-04-16 16:57 25.17090 103.18527 10804 ft 269 kts 34°
2026-04-16 16:57 25.20147 103.20911 10804 ft 269 kts 35°
2026-04-16 16:57 25.21673 103.22102 10804 ft 269 kts 35°
2026-04-16 16:58 25.23205 103.23299 10804 ft 269 kts 35°
2026-04-16 16:58 25.24731 103.24494 10805 ft 269 kts 35°
2026-04-16 16:58 25.26274 103.25703 10805 ft 269 kts 34°
2026-04-16 16:58 25.27802 103.26897 10804 ft 269 kts 34°
2026-04-16 16:59 25.29348 103.28034 10793 ft 264 kts 23°
2026-04-16 16:59 25.31083 103.28404 10780 ft 255 kts 351°
2026-04-16 16:59 25.32744 103.27744 10799 ft 252 kts 321°
2026-04-16 16:59 25.33919 103.26400 10806 ft 237 kts 306°
2026-04-16 17:00 25.34874 103.25015 10815 ft 218 kts 305°
2026-04-16 17:00 25.35774 103.23695 10803 ft 214 kts 306°
2026-04-16 17:00 25.36672 103.22396 10803 ft 213 kts 306°
2026-04-16 17:00 25.37343 103.20965 10797 ft 211 kts 282°
2026-04-16 17:01 25.37351 103.19353 10793 ft 209 kts 252°
2026-04-16 17:01 25.36690 103.17930 10803 ft 208 kts 233°
2026-04-16 17:01 25.35705 103.16758 10807 ft 208 kts 223°
2026-04-16 17:01 25.34608 103.15720 10806 ft 208 kts 219°
2026-04-16 17:02 25.33483 103.14723 10805 ft 208 kts 218°
2026-04-16 17:02 25.32344 103.13734 10804 ft 208 kts 218°
2026-04-16 17:02 25.31200 103.12746 10805 ft 208 kts 218°
2026-04-16 17:02 25.30064 103.11763 10809 ft 208 kts 218°
2026-04-16 17:03 25.28924 103.10779 10810 ft 209 kts 218°
2026-04-16 17:03 25.27766 103.09780 10798 ft 209 kts 218°
2026-04-16 17:03 25.26629 103.08800 10612 ft 208 kts 218°
2026-04-16 17:03 25.25505 103.07832 10338 ft 203 kts 218°
2026-04-16 17:04 25.24420 103.06898 10054 ft 189 kts 218°
2026-04-16 17:04 25.23425 103.06040 9806 ft 181 kts 218°
2026-04-16 17:04 25.22431 103.05183 9578 ft 180 kts 218°
2026-04-16 17:04 25.21453 103.04339 9352 ft 179 kts 218°
2026-04-16 17:05 25.20476 103.03497 9120 ft 176 kts 218°
2026-04-16 17:05 25.19519 103.02670 8893 ft 175 kts 218°
2026-04-16 17:05 25.18562 103.01843 8661 ft 174 kts 218°
2026-04-16 17:05 25.17612 103.01023 8427 ft 174 kts 218°
2026-04-16 17:06 25.16660 103.00202 8191 ft 173 kts 218°
2026-04-16 17:06 25.15723 102.99393 7959 ft 172 kts 218°
2026-04-16 17:06 25.14779 102.98577 7728 ft 172 kts 218°
2026-04-16 17:06 25.13836 102.97762 7500 ft 171 kts 218°
2026-04-16 17:07 25.12909 102.96961 7276 ft 171 kts 218°
2026-04-16 17:07 25.11979 102.96157 7050 ft 168 kts 218°
2026-04-16 17:07 25.11087 102.95385 6919 ft 152 kts 218°
2026-04-16 17:07 25.10196 102.94615 7001 ft 179 kts 218°
2026-04-16 17:08 25.09155 102.93730 7510 ft 191 kts 217°
2026-04-16 17:08 25.08134 102.92906 8462 ft 182 kts 212°
2026-04-16 17:08 25.07040 102.92255 9264 ft 184 kts 205°
2026-04-16 17:08 25.05823 102.91658 9811 ft 200 kts 202°
2026-04-16 17:09 25.04442 102.91277 10337 ft 216 kts 175°
2026-04-16 17:09 25.03041 102.91967 10724 ft 237 kts 136°
2026-04-16 17:09 25.02237 102.93601 10800 ft 254 kts 102°
2026-04-16 17:09 25.02211 102.95554 10810 ft 259 kts 85°
2026-04-16 17:10 25.02413 102.97536 10811 ft 259 kts 85°
2026-04-16 17:10 25.02574 102.99526 10806 ft 259 kts 87°
2026-04-16 17:10 25.02668 103.01496 10805 ft 260 kts 89°
2026-04-16 17:10 25.02760 103.03497 10802 ft 260 kts 84°
2026-04-16 17:11 25.03145 103.05441 10802 ft 262 kts 72°
2026-04-16 17:11 25.03900 103.07281 10803 ft 263 kts 59°
2026-04-16 17:11 25.04980 103.08887 10803 ft 265 kts 47°
2026-04-16 17:11 25.06368 103.10235 10804 ft 267 kts 37°
2026-04-16 17:12 25.07891 103.11436 10806 ft 267 kts 35°
2026-04-16 17:12 25.09411 103.12595 10805 ft 268 kts 34°
2026-04-16 17:12 25.10952 103.13772 10804 ft 268 kts 34°
2026-04-16 17:12 25.12474 103.14944 10804 ft 268 kts 34°
2026-04-16 17:13 25.13990 103.16117 10804 ft 268 kts 34°
2026-04-16 17:13 25.15506 103.17293 10804 ft 268 kts 34°
2026-04-16 17:13 25.17045 103.18491 10804 ft 268 kts 35°
2026-04-16 17:13 25.18556 103.19669 10804 ft 268 kts 35°
2026-04-16 17:14 25.20064 103.20847 10804 ft 268 kts 35°
2026-04-16 17:14 25.21595 103.22042 10804 ft 268 kts 35°
2026-04-16 17:14 25.23106 103.23222 10804 ft 268 kts 35°
2026-04-16 17:14 25.24628 103.24412 10804 ft 268 kts 35°
2026-04-16 17:15 25.26125 103.25583 10801 ft 260 kts 35°
2026-04-16 17:15 25.27555 103.26701 10805 ft 239 kts 34°
2026-04-16 17:15 25.28853 103.27714 10776 ft 222 kts 31°
2026-04-16 17:15 25.30263 103.28334 10783 ft 219 kts
2026-04-16 17:16 25.31756 103.28234 10793 ft 217 kts 342°
2026-04-16 17:16 25.33056 103.27447 10799 ft 214 kts 316°
2026-04-16 17:16 25.34048 103.26210 10812 ft 213 kts 306°
2026-04-16 17:16 25.34938 103.24918 10810 ft 213 kts 305°
2026-04-16 17:17 25.35836 103.23600 10813 ft 213 kts 306°
2026-04-16 17:17 25.36733 103.22302 10818 ft 213 kts 304°
2026-04-16 17:17 25.37364 103.20848 10817 ft 211 kts 281°
2026-04-16 17:17 25.37357 103.19253 10821 ft 209 kts 255°
2026-04-16 17:18 25.36711 103.17820 10825 ft 209 kts 230°
2026-04-16 17:18 25.35648 103.16737 10837 ft 209 kts 220°
2026-04-16 17:18 25.34540 103.15714 10834 ft 209 kts 219°
2026-04-16 17:18 25.33451 103.14731 10814 ft 193 kts 219°
2026-04-16 17:19 25.32429 103.13824 10810 ft 186 kts 218°
2026-04-16 17:19 25.31417 103.12938 10821 ft 185 kts 218°
2026-04-16 17:19 25.30411 103.12062 10826 ft 185 kts 218°
2026-04-16 17:19 25.29398 103.11186 10826 ft 184 kts 218°
2026-04-16 17:20 25.28408 103.10332 10821 ft 179 kts 218°
2026-04-16 17:20 25.27428 103.09488 10777 ft 179 kts 218°
2026-04-16 17:20 25.26449 103.08646 10552 ft 177 kts 218°
2026-04-16 17:20 25.25475 103.07806 10320 ft 177 kts 218°
2026-04-16 17:21 25.24507 103.06973 10090 ft 176 kts 218°
2026-04-16 17:21 25.23545 103.06145 9861 ft 176 kts 218°
2026-04-16 17:21 25.22584 103.05316 9630 ft 175 kts 218°
2026-04-16 17:21 25.21629 103.04493 9399 ft 174 kts 218°
2026-04-16 17:22 25.20679 103.03673 9167 ft 174 kts 218°
2026-04-16 17:22 25.19728 103.02851 8934 ft 173 kts 218°
2026-04-16 17:22 25.18783 103.02035 8703 ft 172 kts 218°
2026-04-16 17:22 25.17843 103.01223 8473 ft 172 kts 218°
2026-04-16 17:23 25.16901 103.00408 8243 ft 171 kts 218°
2026-04-16 17:23 25.15966 102.99601 8017 ft 171 kts 218°
2026-04-16 17:23 25.15045 102.98805 7794 ft 170 kts 218°
2026-04-16 17:23 25.14107 102.97995 7567 ft 170 kts 218°
2026-04-16 17:24 25.13182 102.97198 7354 ft 169 kts 218°
2026-04-16 17:24 25.12257 102.96398 7120 ft 168 kts 218°
2026-04-16 17:24 25.11347 102.95616 6931 ft 163 kts 218°
2026-04-16 17:24 25.10538 102.94922 6918 ft 134 kts 218°
2026-04-16 17:25 25.09721 102.94215 6930 ft 175 kts 218°
2026-04-16 17:25 25.08727 102.93355 7453 ft 187 kts 218°
2026-04-16 17:25 25.07721 102.92493 8302 ft 185 kts 218°
2026-04-16 17:25 25.06746 102.91645 9219 ft 179 kts 217°
2026-04-16 17:26 25.05775 102.90799 9912 ft 178 kts 217°
2026-04-16 17:26 25.04785 102.89939 10216 ft 190 kts 217°
2026-04-16 17:26 25.03718 102.89012 10527 ft 202 kts 217°
2026-04-16 17:26 25.02590 102.88031 11014 ft 207 kts 217°
2026-04-16 17:27 25.01459 102.87048 11555 ft 210 kts 217°
2026-04-16 17:27 25.00321 102.86058 12084 ft 213 kts 217°
2026-04-16 17:27 24.99145 102.85036 12623 ft 216 kts 217°
2026-04-16 17:27 24.97979 102.84020 13169 ft 218 kts 217°
2026-04-16 17:28 24.96784 102.82980 13721 ft 220 kts 217°
2026-04-16 17:28 24.95613 102.81928 14253 ft 222 kts 224°
2026-04-16 17:28 24.94678 102.80569 14766 ft 225 kts 242°
2026-04-16 17:28 24.94171 102.78950 15269 ft 227 kts 260°
2026-04-16 17:29 24.94153 102.77200 15769 ft 229 kts 279°
2026-04-16 17:29 24.94641 102.75532 16258 ft 231 kts 298°
2026-04-16 17:29 24.95463 102.73980 16608 ft 243 kts 303°
2026-04-16 17:29 24.96409 102.72360 16907 ft 261 kts 303°
2026-04-16 17:30 24.97579 102.70768 17219 ft 277 kts 324°
2026-04-16 17:30 24.99364 102.69903 17522 ft 291 kts 356°
2026-04-16 17:30 25.01386 102.70168 17838 ft 304 kts 19°
2026-04-16 17:30 25.03437 102.70969 18185 ft 321 kts 21°
2026-04-16 17:31 25.05597 102.71867 18506 ft 339 kts 21°
2026-04-16 17:31 25.07872 102.72804 18820 ft 357 kts 20°
2026-04-16 17:31 25.10263 102.73774 19127 ft 374 kts 20°
2026-04-16 17:31 25.12812 102.74795 19436 ft 391 kts 19°
2026-04-16 17:32 25.15416 102.75825 19726 ft 408 kts 19°
2026-04-16 17:32 25.18153 102.76901 20016 ft 424 kts 19°
2026-04-16 17:32 25.20948 102.77999 20489 ft 434 kts 19°
2026-04-16 17:32 25.23783 102.79115 21144 ft 438 kts 19°
2026-04-16 17:33 25.26655 102.80248 21826 ft 442 kts 19°
2026-04-16 17:33 25.29551 102.81390 22465 ft 446 kts 18°
2026-04-16 17:33 25.32485 102.82549 23084 ft 450 kts 18°
2026-04-16 17:33 25.35441 102.83715 23691 ft 455 kts 18°
2026-04-16 17:34 25.38420 102.84892 24286 ft 459 kts 18°
2026-04-16 17:34 25.41415 102.86074 24913 ft 461 kts 18°
2026-04-16 17:34 25.44415 102.87260 25728 ft 459 kts 18°
2026-04-16 17:34 25.47395 102.88440 26565 ft 456 kts 18°
2026-04-16 17:35 25.50356 102.89612 27343 ft 454 kts 18°
2026-04-16 17:35 25.53339 102.90791 28081 ft 452 kts 17°
2026-04-16 17:35 25.56284 102.91956 28797 ft 451 kts 17°
2026-04-16 17:35 25.59182 102.93103 29499 ft 449 kts 17°
2026-04-16 17:36 25.62107 102.94260 30138 ft 448 kts 17°
2026-04-16 17:36 25.65046 102.95424 30676 ft 450 kts 17°
2026-04-16 17:36 25.67981 102.96587 31100 ft 453 kts 17°
2026-04-16 17:36 25.70955 102.97768 31226 ft 455 kts 17°
2026-04-16 17:37 25.73939 102.98953 31227 ft 455 kts 17°
2026-04-16 17:37 25.79875 103.01313 31227 ft 455 kts 17°
2026-04-16 17:38 25.85840 103.03687 31227 ft 455 kts 17°
2026-04-16 17:38 25.91756 103.06043 31227 ft 455 kts 17°
2026-04-16 17:39 25.97696 103.08413 31227 ft 454 kts 17°
2026-04-16 17:39 26.03621 103.10777 31227 ft 454 kts 17°
2026-04-16 17:40 26.09561 103.13152 31227 ft 454 kts 17°
2026-04-16 17:40 26.15484 103.15520 31227 ft 454 kts 17°
2026-04-16 17:41 26.21419 103.17898 31227 ft 453 kts 17°
2026-04-16 17:41 26.27326 103.20267 31227 ft 453 kts 17°
2026-04-16 17:42 26.33238 103.22641 31227 ft 453 kts 17°
2026-04-16 17:42 26.39166 103.25021 31227 ft 453 kts 17°
2026-04-16 17:43 26.45075 103.27399 31227 ft 453 kts 17°
2026-04-16 17:43 26.50935 103.29935 31227 ft 455 kts 21°
2026-04-16 17:44 26.56639 103.33025 31227 ft 455 kts 24°
2026-04-16 17:44 26.62251 103.36166 31227 ft 454 kts 24°
2026-04-16 17:45 26.67890 103.39319 31227 ft 454 kts 24°
2026-04-16 17:45 26.73531 103.42470 31227 ft 454 kts 24°
2026-04-16 17:46 26.79181 103.45627 31227 ft 454 kts 24°
2026-04-16 17:46 26.84810 103.48776 31227 ft 454 kts 24°
2026-04-16 17:47 26.90446 103.51931 31227 ft 454 kts 24°
2026-04-16 17:47 26.96064 103.55082 31226 ft 456 kts 23°
2026-04-16 17:48 27.01758 103.58277 31226 ft 457 kts 23°
2026-04-16 17:48 27.07416 103.61455 31225 ft 456 kts 23°
2026-04-16 17:49 27.13078 103.64639 31226 ft 456 kts 23°
2026-04-16 17:49 27.18725 103.67818 31226 ft 456 kts 24°
2026-04-16 17:50 27.24394 103.71014 31227 ft 456 kts 24°
2026-04-16 17:50 27.29681 103.74924 31225 ft 462 kts 42°
2026-04-16 17:50 27.31792 103.77658 31227 ft 465 kts 53°
2026-04-16 17:51 27.33403 103.80794 31227 ft 467 kts 65°
2026-04-16 17:51 27.35289 103.87727 31229 ft 462 kts 76°
2026-04-16 17:52 27.36802 103.94690 31228 ft 460 kts 76°
2026-04-16 17:52 27.38357 104.01666 31227 ft 460 kts 76°
2026-04-16 17:53 27.39935 104.08620 31227 ft 460 kts 76°
2026-04-16 17:53 27.41526 104.15601 31227 ft 460 kts 76°
2026-04-16 17:54 27.43112 104.22573 31223 ft 460 kts 75°
2026-04-16 17:54 27.44689 104.29522 31204 ft 459 kts 76°
2026-04-16 17:55 27.46271 104.36509 31173 ft 459 kts 75°
2026-04-16 17:55 27.47836 104.43438 31138 ft 459 kts 76°
2026-04-16 17:56 27.49403 104.50394 31113 ft 459 kts 76°
2026-04-16 17:56 27.51750 104.60838 31098 ft 459 kts 75°
2026-04-16 17:57 27.53328 104.67849 31093 ft 459 kts 76°
2026-04-16 17:57 27.54885 104.74786 31093 ft 459 kts 76°
2026-04-16 17:58 27.56439 104.81733 31094 ft 459 kts 76°
2026-04-16 17:58 27.57996 104.88708 31094 ft 459 kts 76°
2026-04-16 17:59 27.60127 104.95454 31087 ft 458 kts 57°
2026-04-16 17:59 27.62028 104.98320 31091 ft 455 kts 44°
2026-04-16 17:59 27.64348 105.00683 31096 ft 452 kts 35°
2026-04-16 18:00 27.69365 105.04961 31096 ft 453 kts 33°
2026-04-16 18:00 27.74374 105.09222 31094 ft 455 kts 34°
2026-04-16 18:01 27.79418 105.13584 31094 ft 455 kts 34°
2026-04-16 18:01 27.84397 105.17923 30913 ft 455 kts 34°
2026-04-16 18:02 27.86894 105.20105 30664 ft 453 kts 34°
2026-04-16 18:02 27.89363 105.22265 30416 ft 451 kts 34°
2026-04-16 18:02 27.91834 105.24428 30166 ft 448 kts 34°
2026-04-16 18:02 27.94271 105.26563 29918 ft 446 kts 34°
2026-04-16 18:03 27.96744 105.28728 29667 ft 446 kts 34°
2026-04-16 18:03 27.99180 105.30863 29419 ft 446 kts 35°
2026-04-16 18:03 28.01624 105.33007 29171 ft 447 kts 35°
2026-04-16 18:03 28.04075 105.35159 28922 ft 447 kts 35°
2026-04-16 18:04 28.06560 105.37341 28670 ft 448 kts 35°
2026-04-16 18:04 28.09018 105.39502 28421 ft 448 kts 35°
2026-04-16 18:04 28.11459 105.41649 28174 ft 449 kts 35°
2026-04-16 18:04 28.13911 105.43806 27926 ft 449 kts 35°
2026-04-16 18:05 28.16396 105.45995 27629 ft 450 kts 35°
2026-04-16 18:05 28.18839 105.48148 27192 ft 451 kts 35°
2026-04-16 18:05 28.21339 105.50352 26572 ft 453 kts 35°
2026-04-16 18:05 28.23821 105.52542 25870 ft 457 kts 35°
2026-04-16 18:06 28.26325 105.54753 25218 ft 458 kts 36°
2026-04-16 18:06 28.28813 105.56952 24656 ft 457 kts 36°
2026-04-16 18:06 28.31314 105.59163 24069 ft 457 kts 36°
2026-04-16 18:06 28.33830 105.61388 23473 ft 457 kts 36°
2026-04-16 18:07 28.36321 105.63594 22954 ft 454 kts 36°
2026-04-16 18:07 28.38796 105.65788 22499 ft 450 kts 36°
2026-04-16 18:07 28.41254 105.67966 22060 ft 446 kts 37°
2026-04-16 18:07 28.43674 105.70113 21636 ft 441 kts 37°
2026-04-16 18:08 28.46079 105.72247 21220 ft 436 kts 37°
2026-04-16 18:08 28.48448 105.74352 20807 ft 432 kts 37°
2026-04-16 18:08 28.50828 105.76466 20390 ft 428 kts 37°
2026-04-16 18:08 28.53156 105.78535 19982 ft 424 kts 37°
2026-04-16 18:09 28.55466 105.80589 19576 ft 420 kts 37°
2026-04-16 18:09 28.57748 105.82620 19172 ft 416 kts 37°
2026-04-16 18:09 28.60019 105.84642 18764 ft 413 kts 37°
2026-04-16 18:09 28.62261 105.86640 18360 ft 410 kts 37°
2026-04-16 18:10 28.64486 105.88624 17963 ft 406 kts 37°
2026-04-16 18:10 28.66693 105.90593 17562 ft 403 kts 37°
2026-04-16 18:10 28.68872 105.92538 17165 ft 400 kts 37°
2026-04-16 18:10 28.71064 105.94493 16766 ft 397 kts 37°
2026-04-16 18:11 28.73228 105.96425 16367 ft 395 kts 37°
2026-04-16 18:11 28.75389 105.98357 15966 ft 392 kts 37°
2026-04-16 18:11 28.77510 106.00253 15572 ft 389 kts 37°
2026-04-16 18:11 28.79625 106.02146 15177 ft 387 kts 37°
2026-04-16 18:12 28.81728 106.04029 14782 ft 384 kts 37°
2026-04-16 18:12 28.83836 106.05917 14383 ft 382 kts 37°
2026-04-16 18:12 28.85898 106.07765 13993 ft 379 kts 37°
2026-04-16 18:12 28.87976 106.09628 13596 ft 377 kts 37°
2026-04-16 18:13 28.90023 106.11465 13204 ft 374 kts 37°
2026-04-16 18:13 28.92062 106.13295 12811 ft 372 kts 37°
2026-04-16 18:13 28.94088 106.15115 12418 ft 369 kts 37°
2026-04-16 18:13 28.96071 106.16895 12032 ft 366 kts 37°
2026-04-16 18:14 28.98075 106.18697 11640 ft 364 kts 37°
2026-04-16 18:14 29.00061 106.20483 11251 ft 361 kts 37°
2026-04-16 18:14 29.02020 106.22247 10864 ft 358 kts 37°
2026-04-16 18:14 29.03944 106.23980 10487 ft 355 kts 37°
2026-04-16 18:15 29.05868 106.25713 10178 ft 348 kts 37°
2026-04-16 18:15 29.07755 106.27414 10040 ft 336 kts 37°
2026-04-16 18:15 29.09541 106.29024 9995 ft 322 kts 37°
2026-04-16 18:15 29.11257 106.30573 9950 ft 307 kts 38°
2026-04-16 18:16 29.12888 106.32045 9910 ft 292 kts 38°
2026-04-16 18:16 29.14461 106.33467 9880 ft 284 kts 38°
2026-04-16 18:16 29.15995 106.34853 9809 ft 281 kts 37°
2026-04-16 18:16 29.17522 106.36233 9473 ft 281 kts 37°
2026-04-16 18:17 29.19044 106.37611 9142 ft 281 kts 37°
2026-04-16 18:17 29.20582 106.39004 8835 ft 279 kts 37°
2026-04-16 18:17 29.22095 106.40376 8542 ft 277 kts 37°
2026-04-16 18:17 29.23595 106.41734 8255 ft 276 kts 37°
2026-04-16 18:18 29.25107 106.43097 7967 ft 274 kts 38°
2026-04-16 18:18 29.26579 106.44431 7706 ft 272 kts 38°
2026-04-16 18:18 29.28046 106.45764 7453 ft 269 kts 38°
2026-04-16 18:18 29.29516 106.47100 7195 ft 267 kts 38°
2026-04-16 18:19 29.30963 106.48415 6934 ft 266 kts 38°
2026-04-16 18:19 29.32407 106.49725 6667 ft 265 kts 38°
2026-04-16 18:19 29.33857 106.51041 6395 ft 264 kts 38°
2026-04-16 18:19 29.35267 106.52322 6303 ft 253 kts 39°
2026-04-16 18:20 29.36598 106.53531 6295 ft 239 kts 39°
2026-04-16 18:20 29.37884 106.54675 6282 ft 225 kts 34°
2026-04-16 18:20 29.39223 106.55431 6240 ft 209 kts 20°
2026-04-16 18:20 29.40584 106.55919 5986 ft 203 kts 15°
2026-04-16 18:21 29.41932 106.56342 5749 ft 202 kts 15°
2026-04-16 18:21 29.43297 106.56771 5520 ft 201 kts 15°
2026-04-16 18:21 29.44635 106.57205 5292 ft 201 kts 16°
2026-04-16 18:21 29.45964 106.57649 5075 ft 200 kts 17°
2026-04-16 18:22 29.47301 106.58107 4912 ft 199 kts 17°
2026-04-16 18:22 29.48619 106.58565 4904 ft 199 kts 17°
2026-04-16 18:22 29.49941 106.59029 4902 ft 200 kts 17°
2026-04-16 18:22 29.51278 106.59500 4900 ft 200 kts 17°
2026-04-16 18:23 29.52605 106.59968 4895 ft 200 kts 17°
2026-04-16 18:23 29.53925 106.60434 4898 ft 200 kts 17°
2026-04-16 18:23 29.55245 106.60899 4781 ft 200 kts 17°
2026-04-16 18:23 29.56578 106.61366 4526 ft 199 kts 17°
2026-04-16 18:24 29.57888 106.61826 4262 ft 198 kts 17°
2026-04-16 18:24 29.59195 106.62283 3999 ft 195 kts 17°
2026-04-16 18:24 29.60463 106.62727 3729 ft 183 kts 17°
2026-04-16 18:24 29.61638 106.63137 3480 ft 170 kts 17°
2026-04-16 18:25 29.62740 106.63522 3263 ft 165 kts 17°
2026-04-16 18:25 29.63832 106.63903 3063 ft 164 kts 17°
2026-04-16 18:25 29.64918 106.64282 2857 ft 164 kts 17°
2026-04-16 18:25 29.66002 106.64661 2646 ft 163 kts 17°
2026-04-16 18:26 29.67093 106.65041 2426 ft 163 kts 18°
2026-04-16 18:26 29.68173 106.65418 2204 ft 162 kts 18°
2026-04-16 18:26 29.69242 106.65792 1988 ft 162 kts 18°
2026-04-16 18:26 29.70318 106.66167 1776 ft 161 kts 18°
2026-04-16 18:27 29.71393 106.66549 1555 ft 160 kts 18°
2026-04-16 18:27 29.72454 106.66914 1384 ft 151 kts 17°
2026-04-16 18:27 29.73308 106.67223 1379 ft 104 kts 15°
2026-04-16 18:27 29.73838 106.67238 1379 ft 51 kts 349°
2026-04-16 18:28 29.73989 106.67142 1379 ft 10 kts 283°
2026-04-16 18:28 29.74013 106.67054 1379 ft 12 kts 287°
2026-04-16 18:28 29.74042 106.66948 1379 ft 14 kts 287°
2026-04-16 18:28 29.74073 106.66833 1379 ft 14 kts 287°
2026-04-16 18:29 29.74071 106.66764 1379 ft 8 kts 223°
2026-04-16 18:29 29.74007 106.66728 1379 ft 11 kts 199°
2026-04-16 18:29 29.73926 106.66695 1379 ft 13 kts 197°
2026-04-16 18:29 29.73829 106.66664 1379 ft 15 kts 195°
2026-04-16 18:30 29.73724 106.66628 1379 ft 16 kts 197°
2026-04-16 18:30 29.73611 106.66588 1379 ft 17 kts 197°
2026-04-16 18:30 29.73493 106.66548 1379 ft 18 kts 196°
2026-04-16 18:30 29.73366 106.66505 1379 ft 19 kts 196°
2026-04-16 18:31 29.73268 106.66471 1379 ft 14 kts 197°
2026-04-16 18:31 29.73181 106.66441 1379 ft 8 kts 197°
2026-04-16 18:31 29.73136 106.66402 1379 ft 9 kts 253°
2026-04-16 18:31 29.73128 106.66319 1379 ft 11 kts 257°
2026-04-16 18:32 29.73109 106.66231 1379 ft 12 kts 256°
2026-04-16 18:32 29.73094 106.66164 1379 ft 8 kts 266°
2026-04-16 18:32 29.73120 106.66100 1379 ft 7 kts 312°
2026-04-16 18:32 29.73154 106.66065 1379 ft 6 kts 319°
2026-04-16 18:33 29.73188 106.66032 1379 ft 2 kts 321°
2026-04-16 18:33 29.73190 106.66029 1379 ft 0 kts 320°